Flight Track Log - Related Links

Times and Time Zones

All times are in EDT time to prevent confusion due to time zone crossing. See the N53NW flight status page for this flight to view local times or setup timezone preferences in your user account.

Time Position Orientation Groundspeed Altitude Reporting Facility
EDT Latitude Longitude Course Direction KTS MPH feet Rate Location/Type
Tue 08:18:11 AM 30.4947 -81.6992 210° Southwest 174 200 600  Level Jacksonville Center
Tue 08:19:30 AM 30.4325 -81.7411 210° Southwest 247 284 3,200 2,400 Climbing Jacksonville Center
Tue 08:20:31 AM 30.3653 -81.7008 153° Southeast 267 307 6,200 2,826 Climbing Jacksonville Center
Tue 08:22:05 AM 30.2933 -81.6081 132° Southeast 292 336 10,500 2,805 Climbing Jacksonville Center
Tue 08:23:05 AM 30.2489 -81.5339 125° Southeast 292 336 13,400 2,700 Climbing Jacksonville Center
Tue 08:24:05 AM 30.2022 -81.4600 126° Southeast 287 330 15,900 1,750 Climbing Jacksonville Center
Tue 08:25:05 AM 30.1531 -81.3792 125° Southeast 294 338 16,900 500 Climbing Jacksonville Center
Tue 08:26:05 AM 30.0978 -81.2936 127° Southeast 314 361 16,900  Level Jacksonville Center
Tue 08:27:05 AM 30.0403 -81.2058 127° Southeast 328 377 16,900  Level Jacksonville Center
Tue 08:28:05 AM 29.9522 -81.1808 166° South 320 368 16,900  Level Jacksonville Center
Tue 08:29:05 AM 29.8603 -81.1731 176° South 317 365 16,900  Level Jacksonville Center
Tue 08:30:05 AM 29.7642 -81.1653 176° South 330 380 16,900  Level Jacksonville Center
Tue 08:31:05 AM 29.6700 -81.1547 174° South 341 392 16,900  Level Jacksonville Center
Tue 08:32:05 AM 29.5781 -81.1444 174° South 341 392 16,900  Level Jacksonville Center
Tue 08:33:05 AM 29.4842 -81.1367 176° South 341 392 16,900 -600 Level Jacksonville Center
Tue 08:34:05 AM 29.3919 -81.1239 173° South 341 392 15,700 -1,000 Descending Jacksonville Center
Tue 08:35:05 AM 29.3042 -81.1161 176° South 334 384 14,900 -350 Descending Jacksonville Center
Tue 08:36:05 AM 29.2186 -81.1081 175° South 322 371 15,000 50 Climbing Jacksonville Center
Tue 08:37:05 AM 29.1331 -81.1025 177° South 322 371 15,000  Level Jacksonville Center
Tue 08:38:05 AM 29.0431 -81.0922 174° South 322 371 15,000  Level Jacksonville Center
Tue 08:39:05 AM 28.9553 -81.0867 177° South 322 371 15,000 -950 Level Jacksonville Center
Tue 08:40:05 AM 28.8675 -81.0811 177° South 322 371 13,100 -1,950 Descending Jacksonville Center
Tue 08:41:05 AM 28.7819 -81.0758 177° South 322 371 11,100 -2,000 Descending Jacksonville Center
Tue 08:42:05 AM 28.6964 -81.0703 177° South 312 359 9,100 -2,000 Descending Jacksonville Center
Tue 08:43:05 AM 28.6208 -81.0572 171° South 299 344 7,100 -2,000 Descending Jacksonville Center
Tue 08:44:05 AM 28.5494 -81.0256 159° South 281 323 5,100 -1,100 Descending Jacksonville Center
Tue 08:45:05 AM 28.4883 -80.9700 141° Southeast 271 312 4,900 -42 Descending Jacksonville Center
Tue 08:46:27 AM 28.4000 -80.8833 139° Southeast 275 316 5,000 42 Climbing Orlando TRACON
Tue 08:47:27 AM 28.3333 -80.8333 147° Southeast 277 319 5,000 -333 Level Orlando TRACON
Tue 08:48:33 AM 28.2667 -80.7833 147° Southeast 272 313 4,300 -500 Descending Orlando TRACON
Tue 08:49:27 AM 28.2167 -80.7500 150° Southeast 253 291 4,000 -579 Descending Orlando TRACON
Tue 08:50:27 AM 28.1500 -80.7000 147° Southeast 262 302 3,200 -1,000 Descending Orlando TRACON
Tue 08:51:27 AM 28.0833 -80.6667 156° South 232 267 2,000 -762 Descending Orlando TRACON
Tue 08:52:33 AM 28.0667 -80.6167 111° Southeast 169 194 1,600 -524 Descending Orlando TRACON
Tue 08:53:33 AM 28.1000 -80.5833 41° Northeast 136 157 900 -626 Descending Orlando TRACON
Tue 08:54:28 AM 28.1000 -80.6167 270° West 102 117 400 -545 Descending Orlando TRACON
Tue 08:56:00 AM 28.1000 -80.6333 336° Northwest  Level FlightAware
Tue 09:03:00 AM 28.1028 -80.6453 336° Northwest  Level Estimated
Tue 09:04:00 AM 28.1028 -80.6453 336° Northwest  Level Estimated
Tue 09:05:00 AM 28.1028 -80.6453 336° Northwest  Level Estimated

Login

Don't have an account? Register now (free) for customized features, flight alerts, and more!